Вернуться в каталог

STARLINK-5447

АктивенСвязьVLEO
NORAD 54779·PAYLOAD·🇺🇸 United States

Запущен Dec 17, 2022 с Cape Canaveral Space Force Station

Loading…

Ближайшие Пролёты (ближайшие 24 часа)

TLE

СвежийSource: CelesTrak SupGP

Эпоха: Sep 15, 2026, 02:16 UTC

1 54779C 22175X   26258.09493056 -.00021950  00000+0 -64797-3 0  2580
2 54779  53.1572 245.0138 0001212  95.4842 187.7585 15.34427696    17

Отслеживайте STARLINK-5447 в реальном времени с AllMySat

Download on the App Store